Regional Weather Roundup
Issued by NWS

Home | Current Version | Previous Version | Text Only | Print | Product List | Glossary On
Versions: 1 2 3 4 5 6 7 8 9 10 11 12 13 14 15 16 17 18 19 20 21 22 23 24 25 26 27 28 29 30 31 32 33 34 35 36 37
000
ASUS45 KBOU 210607
RWRCO

WEATHER ROUNDUP FOR COLORADO
NATIONAL WEATHER SERVICE DENVER/BOULDER CO
1200 AM MDT TUE OCT 21 2014

NOTE: "FAIR" INDICATES FEW OR NO CLOUDS BELOW 12000 FEET WITH NO
SIGNIFICANT WEATHER AND/OR OBSTRUCTIONS TO VISIBILITY.

COZ001>005-013-030-031-210700-
...NORTHWEST COLORADO...

CITY           SKY/WX    TMP DP  RH WIND       PRES   REMARKS
CRAIG          CLEAR     36  32  85 SE3       30.12F
HAYDEN         CLEAR     45  34  65 E9        30.13F
MEEKER         PTCLDY    45  36  70 NE7       30.13F
MOUNT WERNER   NOT AVBL
STEAMBOAT SPGS CLEAR     42  34  74 CALM      30.16S
WALDEN         CLEAR     34  30  86 E3        30.21S
$$

COZ006>008-011-210700-
...WEST CENTRAL VALLEYS...

CITY           SKY/WX    TMP DP  RH WIND       PRES   REMARKS
GRAND JUNCTION CLOUDY    58  39  49 E7        30.04F
MONTROSE       CLOUDY    53  39  59 SE8       30.13F
EAGLE          PTCLDY    46  37  71 S5        30.17F
RIFLE          PTCLDY    46  38  73 E6        30.10S
DELTA          PTCLDY    55  41  59 NE3       30.09F
NUCLA          PTCLDY    52  37  58 E12       30.16F
$$

COZ017>023-064>068-210700-
...SOUTHWEST COLORADO...

CITY           SKY/WX    TMP DP  RH WIND       PRES   REMARKS
DURANGO        CLOUDY    50  43  77 CALM      30.21S
CORTEZ         MOCLDY    49  39  68 NE5       30.14S
PAGOSA SPRINGS CLOUDY    44  42  91 CALM      30.27S
TELLURIDE      PTCLDY    46  34  64 CALM      30.30F
WOLF CREEK PAS CLOUDY    34  30  86 SW7       30.44F WCI  28
$$

COZ009-010-012-014-032>034-037-058>063-210700-
...CENTRAL COLORADO...

CITY           SKY/WX    TMP DP  RH WIND       PRES   REMARKS
ASPEN          CLEAR     41  32  70 SW9       30.21F
BUENA VISTA    PTCLDY    39  33  78 W5        30.26S
COPPER MTN     PTCLDY    41  28  60 S15       30.43F
BERTHOUD PASS  FAIR      32  30  93 MISG      30.46S
COTTONWOOD PAS PTCLDY    46  30  53 CALM      30.34F
GUNNISON       PTCLDY    39  28  65 CALM      30.27S
KREMMLING      PTCLDY    41  32  70 CALM        N/A
LEADVILLE      PTCLDY    37  28  70 E5        30.32F
MONARCH PASS   PTCLDY    36  28  75 SW12      30.54F
SALIDA         PTCLDY    47  35  62 W8        30.31S
SUNLIGHT       MOCLDY    43  34  70 CALM      30.37F
WILKERSON PASS NOT AVBL
$$

COZ069>075-210700-
...SAN LUIS VALLEY/SANGRE DE CRISTO MOUNTAINS...

CITY           SKY/WX    TMP DP  RH WIND       PRES   REMARKS
ALAMOSA        CLEAR     39  34  82 CALM      30.24F
LA VETA PASS   CLEAR     41  30  65 SW7       30.35F
SAGUACHE       PTCLDY    43  34  70 NW8       30.26F
$$

COZ035-036-038>040-210700-
...NORTHERN COLORADO FRONT RANGE...

CITY           SKY/WX    TMP DP  RH WIND       PRES   REMARKS
DENVER INTL AP PTCLDY    59  39  47 S24       30.05F
DMNS CITY PARK   N/A     60  36  41 S13       30.05S
AURORA         PTCLDY    56  39  52 S18       30.08F
FRONT RANGE AP NOT AVBL
ERIE MUNI ARPT CLEAR     49  39  68 SW5       30.03F
BOULDER MUN AP CLEAR     54  37  54 CALM      30.03S
CENTENNIAL     CLEAR     55  38  52 SE9       30.11S
BROOMFIELD     CLEAR     57  36  44 S8        30.06F
FORT COLLINS   PTCLDY    48  39  71 N7        30.05F
LONGMONT       PTCLDY    48  41  76 CALM      30.04F
$$

COZ041-046-047-076>085-087-088-210700-
...PIKES PEAK/PALMER DIVIDE AND SOUTHERN FOOTHILLS...

CITY           SKY/WX    TMP DP  RH WIND       PRES   REMARKS
COLO. SPRINGS  CLEAR     50  40  68 E9        30.17F
A. F. ACADEMY  CLEAR     50  37  62 S2        30.18F
ELLICOTT       CLEAR     50  42  74 SE12      30.15F
FALCON         CLEAR     46  39  77 S3        30.21F
FORT CARSON    CLEAR     49  39  69 N5        30.14F
LIMON          CLEAR     49  41  74 S9        30.14F
MONUMENT HILL  CLEAR     48  39  71 S20       30.17S
TRINIDAD       CLEAR     54  40  59 SW12      30.15F
$$

COZ042>045-048>051-090-091-210700-
...NORTHEAST COLORADO...

CITY           SKY/WX    TMP DP  RH WIND       PRES   REMARKS
GREELEY ARPT   CLEAR     48  34  57 E3        30.03F
AKRON          CLEAR     55  42  61 S15       30.07F
BURLINGTON     CLEAR     54  38  54 S14       30.11F
WRAY           CLEAR     53  40  60 SW7       30.08F
STERLING       CLEAR     55  45  67 S5        30.04S
HOLYOKE        CLEAR     48  39  71 S7        30.07F
FORT MORGAN    CLEAR     49  39  67 SE3       30.05F
$$

COZ086-089-092>099-210700-
...SOUTHEAST COLORADO...

CITY           SKY/WX    TMP DP  RH WIND       PRES   REMARKS
PUEBLO         CLEAR     53  42  66 E7        30.09F
LA JUNTA       CLEAR     52  46  80 SE7       30.10F
LAMAR          CLEAR     51  47  86 CALM      30.08F
SPRINGFIELD      N/A     47  46  97 SW5       30.12F
$$



USA.gov is the U.S. government's official web portal to all federal, state and local government web resources and services.